Pearl River, LA

7:21 AM CST on December 10, 2016 (GMT -0600)
Slidell

Weather History for KASD - January, 2014

Change the Weather History Date:

Tuesday, January 14, 2014

  Actual Average (KNEW) Record (KNEW)
Temperature  
Mean Temperature 51 °F -  
Max Temperature 63 °F 61 °F 80 °F (1971)
Min Temperature 39 °F 45 °F 24 °F (1964)
Degree Days  
Heating Degree Days 14    
Growing Degree Days 1 (Base 50)    
Moisture  
Dew Point 38 °F    
Average Humidity 66    
Maximum Humidity 93    
Minimum Humidity 35    
Precipitation  
Precipitation 0.00 in - - ()
Sea Level Pressure  
Sea Level Pressure 30.07 in    
Wind  
Wind Speed 4 mph (WNW)    
Max Wind Speed 7 mph    
Max Gust Speed -    
Visibility 10 miles    
Events      
Averages and records for this station are not official NWS values.
T = Trace of Precipitation, MM = Missing Value Source: NWS Daily Summary

Daily Weather History Graph

Daily Weather History Graph

Search for Another Location

Airport or City:

Trip Planner

Search our weather history database for the weather conditions in past years. The results will help you decide how hot, cold, wet, or windy it might be!

Date:

Astronomy

Jan. 14, 2014 Rise Set
Actual Time 6:56 AM CST 5:20 PM CST
Civil Twilight 6:30 AM CST 5:46 PM CST
Nautical Twilight 6:01 AM CST 6:15 PM CST
Astronomical Twilight 5:32 AM CST 6:44 PM CST
Moon 4:23 PM CST (1/14) 5:33 AM CST (1/14)
Length of Visible Light 11h 15m
Length of Day
10h 23m
Waxing Gibbous, 98% of the Moon is Illuminated
Jan 14
Waxing Gibbous
Jan 15
Full
Jan 23
Last Quarter
Jan 30
New
Feb 6
First Quarter

Hourly Weather History & Observations

Time (CST) Temp. Dew Point Humidity Pressure Visibility Wind Dir Wind Speed Gust Speed Precip Events Conditions
12:53 AM 54.0 °F 42.1 °F 64% 30.00 in 10.0 mi NNW 6.9 mph - N/A   Clear
1:53 AM 52.0 °F 39.0 °F 61% 30.01 in 10.0 mi NW 5.8 mph - N/A   Clear
2:53 AM 50.0 °F 37.0 °F 61% 30.02 in 10.0 mi NNW 5.8 mph - N/A   Clear
3:53 AM 48.0 °F 37.0 °F 66% 30.02 in 10.0 mi Variable 3.5 mph - N/A   Clear
4:53 AM 42.1 °F 37.9 °F 85% 30.04 in 10.0 mi Calm Calm - N/A   Clear
5:53 AM 39.0 °F 37.0 °F 93% 30.05 in 10.0 mi Calm Calm - N/A   Clear
6:53 AM 39.0 °F 37.0 °F 93% 30.07 in 10.0 mi Calm Calm - N/A   Clear
7:53 AM 42.1 °F 39.0 °F 89% 30.10 in 10.0 mi Calm Calm - N/A   Clear
8:53 AM 51.1 °F 39.0 °F 63% 30.11 in 10.0 mi North 5.8 mph - N/A   Clear
9:53 AM 55.9 °F 39.0 °F 53% 30.12 in 10.0 mi North 4.6 mph - N/A   Clear
10:53 AM 57.9 °F 39.0 °F 49% 30.10 in 10.0 mi Calm Calm - N/A   Clear
11:53 AM 62.1 °F 37.0 °F 39% 30.08 in 10.0 mi Variable 4.6 mph - N/A   Clear
12:53 PM 63.0 °F 35.1 °F 35% 30.06 in 10.0 mi SW 3.5 mph - N/A   Clear
1:53 PM 62.1 °F 39.0 °F 43% 30.05 in 10.0 mi Variable 5.8 mph - N/A   Clear
2:53 PM 61.0 °F 36.0 °F 39% 30.06 in 10.0 mi SSW 6.9 mph - N/A   Clear
3:53 PM 61.0 °F 34.0 °F 36% 30.06 in 10.0 mi SW 5.8 mph - N/A   Clear
4:53 PM 57.9 °F 37.0 °F 46% 30.07 in 10.0 mi SW 3.5 mph - N/A   Clear
5:53 PM 50.0 °F 41.0 °F 71% 30.08 in 10.0 mi Calm Calm - N/A   Clear
6:53 PM 46.0 °F 39.9 °F 79% 30.09 in 10.0 mi Calm Calm - N/A   Clear
7:53 PM 44.1 °F 39.9 °F 85% 30.11 in 10.0 mi Calm Calm - N/A   Clear
8:53 PM 43.0 °F 39.0 °F 86% 30.12 in 10.0 mi Calm Calm - N/A   Clear
9:53 PM 42.1 °F 37.9 °F 85% 30.12 in 10.0 mi Calm Calm - N/A   Clear
10:53 PM 43.0 °F 37.9 °F 82% 30.10 in 10.0 mi Calm Calm - N/A   Clear
11:53 PM 42.1 °F 37.9 °F 85% 30.09 in 10.0 mi Calm Calm - N/A   Clear